Weather reports worldwide

Advertisment
Figari, France (7780): temperature & dewpoint: 09.12.2018 07:00:00 - 15.12.2018 07:00:00 (CET)Figari, France (7780): temperature 5cm: 09.12.2018 07:00:00 - 15.12.2018 07:00:00 (CET)Figari, France (7780): wind speed & gusts: 09.12.2018 07:00:00 - 15.12.2018 07:00:00 (CET)Figari, France (7780): wind direction: 09.12.2018 07:00:00 - 15.12.2018 07:00:00 (CET)Figari, France (7780): reduced air pressure: 09.12.2018 07:00:00 - 15.12.2018 07:00:00 (CET)Figari, France (7780): visibility: 09.12.2018 07:00:00 - 15.12.2018 07:00:00 (CET)Figari, France (7780): precipitation: 09.12.2018 07:00:00 - 15.12.2018 07:00:00 (CET)
Date & Time tt [°C] td [°C] tt 5cm [°C] ff [km/h] ff [kn] fx [km/h] fx [kn] dd ppp [hPa] vv [km] rr [mm]
15.12.2018 07:00:00 - - - - - - - - - - -
15.12.2018 06:00:00 7,9 3,5 7,1 10 6 19 10 ENE 1016,0 60 0,0
15.12.2018 05:00:00 8,0 3,6 7,3 11 6 19 11 ENE 1015,3 60 0,0
15.12.2018 04:00:00 8,2 3,8 7,6 10 6 18 10 ENE 1015,2 60 0,0
15.12.2018 03:00:00 8,2 4,0 7,5 7 4 14 7 NE 1015,1 60 0,0
15.12.2018 02:00:00 8,5 3,7 7,6 10 5 17 9 ENE 1014,4 60 0,0
15.12.2018 01:00:00 8,4 4,4 7,4 10 6 17 9 ENE 1014,2 60 0,0
15.12.2018 00:00:00 8,2 4,4 7,1 10 5 22 12 ENE 1014,3 60 0,0
14.12.2018 23:00:00 8,7 4,7 8,0 11 6 20 11 NE 1013,9 60 0,0
14.12.2018 22:00:00 8,8 5,2 7,9 12 7 21 11 ENE 1013,7 60 0,0
14.12.2018 21:00:00 8,6 5,9 7,6 13 7 23 12 NE 1013,5 60 0,0
14.12.2018 20:00:00 8,4 6,2 7,6 14 7 30 16 ENE 1013,0 23 0,0
14.12.2018 19:00:00 8,8 5,7 8,2 16 9 30 16 ENE 1012,2 58 0,0
14.12.2018 18:00:00 8,8 5,9 8,2 16 9 32 18 ENE 1011,6 60 0,0
14.12.2018 17:00:00 9,3 6,2 9,0 17 9 28 15 ENE 1010,9 60 0,0
14.12.2018 16:00:00 10,0 6,3 9,6 15 8 31 17 ENE 1010,1 60 0,0
14.12.2018 15:00:00 10,2 6,9 9,9 15 8 32 17 ENE 1009,5 19 0,0
14.12.2018 14:00:00 10,8 7,1 10,1 10 6 26 14 NE 1009,7 18 0,0
14.12.2018 13:00:00 10,8 6,7 10,0 13 7 27 15 ENE 1009,7 60 0,0
14.12.2018 12:00:00 11,2 6,9 10,8 16 9 31 17 ENE 1009,6 60 0,0
14.12.2018 11:00:00 11,0 7,7 10,5 11 6 21 12 NE 1009,0 60 0,0
14.12.2018 10:00:00 9,6 7,5 8,4 8 5 31 17 NE 1008,7 60 0,0
14.12.2018 09:00:00 8,7 6,7 7,8 20 11 34 19 ENE 1008,0 31 0,6
14.12.2018 08:00:00 8,9 6,5 7,9 22 12 41 22 ENE 1007,4 59 0,0
14.12.2018 07:00:00 8,7 6,7 8,1 24 13 48 26 ENE 1006,7 60 0,0
14.12.2018 06:00:00 9,0 7,1 8,4 26 14 45 25 ENE 1006,1 60 0,0
14.12.2018 05:00:00 9,0 7,3 8,2 27 14 48 26 ENE 1005,9 60 0,0
14.12.2018 04:00:00 8,8 7,4 8,3 26 14 46 25 ENE 1006,4 49 0,4
14.12.2018 03:00:00 8,9 7,7 8,3 24 13 42 23 ENE 1007,0 10 1,0
14.12.2018 02:00:00 8,9 7,5 8,2 24 13 48 26 ENE 1007,2 16 0,4
14.12.2018 01:00:00 8,9 7,5 8,3 18 10 46 25 ENE 1007,2 18 0,8
14.12.2018 00:00:00 8,8 7,6 8,2 21 12 43 23 ENE 1007,5 18 0,8
13.12.2018 23:00:00 8,7 7,5 8,2 22 12 44 24 NE 1007,9 17 0,8
13.12.2018 22:00:00 8,8 7,4 8,1 23 12 43 23 ENE 1007,7 15 1,0
13.12.2018 21:00:00 8,9 7,2 8,2 21 12 42 23 ENE 1007,9 57 0,0
13.12.2018 20:00:00 8,9 7,7 8,4 22 12 49 26 ENE 1007,7 60 0,2
13.12.2018 19:00:00 9,2 8,1 8,7 24 13 41 22 ENE 1008,1 20 1,4
13.12.2018 18:00:00 9,3 8,1 8,8 20 11 48 26 ENE 1008,4 10 1,0
13.12.2018 17:00:00 9,5 8,1 8,9 21 12 39 21 ENE 1008,5 15 0,4
13.12.2018 16:00:00 9,7 8,1 9,2 21 11 36 19 ENE 1008,5 30 0,0
13.12.2018 15:00:00 9,7 8,1 9,2 19 10 32 17 ENE 1008,8 39 0,0
13.12.2018 14:00:00 9,8 8,6 9,5 11 6 16 9 ENE 1009,6 7 1,8
13.12.2018 13:00:00 10,1 8,4 9,5 8 5 18 10 E 1010,5 5 1,6
13.12.2018 12:00:00 10,4 8,0 9,7 12 6 22 12 ENE 1011,0 39 0,2
13.12.2018 11:00:00 11,6 9,5 11,8 4 2 9 5 S 1011,2 58 0,0
13.12.2018 10:00:00 11,3 8,9 11,1 4 2 10 6 S 1011,4 60 0,0
13.12.2018 09:00:00 8,7 8,1 2,2 6 3 9 5 SE 1011,4 58 0,0
13.12.2018 08:00:00 3,6 2,6 1,1 4 2 9 5 SSW 1011,7 58 0,0
13.12.2018 07:00:00 3,3 2,3 -1,1 7 4 15 8 SW 1011,5 60 0,0
13.12.2018 06:00:00 3,3 2,0 -0,8 10 5 17 9 WSW 1011,5 60 0,0
13.12.2018 05:00:00 5,2 3,7 0,7 5 3 11 6 SSW 1011,9 60 0,0
13.12.2018 04:00:00 6,7 4,9 2,2 4 2 11 6 SE 1012,5 60 0,0
13.12.2018 03:00:00 8,4 6,5 5,5 5 3 18 10 SSE 1013,3 60 0,0
13.12.2018 02:00:00 9,3 7,4 6,8 14 7 21 12 WSW 1013,2 60 0,2
13.12.2018 01:00:00 8,6 7,2 1,6 10 5 19 11 WSW 1014,0 60 0,0
13.12.2018 00:00:00 4,5 3,5 1,3 5 3 9 5 S 1014,6 41 0,0
12.12.2018 23:00:00 5,6 4,7 2,9 2 1 8 4 SSE 1014,9 43 0,0
12.12.2018 22:00:00 5,7 4,8 1,0 3 2 5 3 ENE 1015,0 38 0,0
12.12.2018 21:00:00 6,0 4,8 1,2 5 3 9 5 NNE 1015,3 50 0,0
12.12.2018 20:00:00 6,3 4,9 3,2 5 3 7 4 NNE 1015,5 50 0,0
12.12.2018 19:00:00 7,5 6,0 4,0 5 3 8 4 NE 1015,4 52 0,0
12.12.2018 18:00:00 8,9 6,7 6,1 3 2 9 5 NNE 1015,6 54 0,0
12.12.2018 17:00:00 10,9 8,1 8,1 5 3 8 4 NE 1015,8 60 0,0
12.12.2018 16:00:00 12,7 8,6 12,7 4 2 13 7 ESE 1016,1 60 0,0
12.12.2018 15:00:00 13,3 8,6 13,9 4 2 11 6 ESE 1016,0 60 0,0
12.12.2018 14:00:00 14,5 7,3 14,8 3 2 11 6 N 1016,4 60 0,0
12.12.2018 13:00:00 13,2 7,0 14,0 4 2 11 6 E 1017,1 60 0,0
12.12.2018 12:00:00 12,7 8,4 13,5 5 3 12 6 SSE 1018,1 54 0,0
12.12.2018 11:00:00 12,2 7,7 11,0 5 3 9 5 NE 1018,4 55 0,0
12.12.2018 10:00:00 9,7 8,8 8,0 2 1 6 3 E 1018,3 52 0,0
12.12.2018 09:00:00 7,5 6,6 5,3 3 2 11 6 S 1018,2 18 0,0
12.12.2018 08:00:00 4,9 4,3 0,4 5 3 9 5 NE 1018,2 43 0,0
12.12.2018 07:00:00 3,3 2,4 0,5 4 2 10 6 NE 1017,8 39 0,0
12.12.2018 06:00:00 2,8 2,2 -1,4 4 2 9 5 E 1017,7 49 0,0
12.12.2018 05:00:00 0,7 -0,2 -2,3 4 2 8 5 NE 1018,0 31 0,0
12.12.2018 04:00:00 0,6 -0,4 -2,1 3 2 7 4 NNE 1018,1 23 0,0
12.12.2018 03:00:00 1,5 0,3 -1,9 5 3 7 4 NE 1018,3 25 0,0
12.12.2018 02:00:00 3,2 2,2 -1,3 6 3 9 5 NE 1018,4 33 0,0
12.12.2018 01:00:00 4,9 3,1 0,0 4 2 9 5 NNE 1018,6 20 0,0
12.12.2018 00:00:00 7,2 4,8 2,9 3 2 26 14 ENE 1018,6 48 0,0
11.12.2018 23:00:00 7,8 6,7 2,3 11 6 26 14 NE 1018,7 52 0,0
11.12.2018 22:00:00 6,9 4,9 3,3 8 4 11 6 NE 1018,6 54 0,0
11.12.2018 21:00:00 7,1 5,6 0,5 7 4 11 6 NE 1018,4 60 0,0
11.12.2018 20:00:00 4,5 3,0 0,6 8 5 13 7 NE 1018,3 60 0,0
11.12.2018 19:00:00 5,0 3,5 1,1 3 2 9 5 NNE 1018,1 49 0,0
11.12.2018 18:00:00 6,2 4,7 0,8 9 5 9 5 NNE 1017,7 46 0,0
11.12.2018 17:00:00 9,2 5,9 3,3 4 2 8 4 NE 1017,5 54 0,0
11.12.2018 16:00:00 14,8 7,1 13,6 4 2 11 6 SSW 1017,4 55 0,0
11.12.2018 15:00:00 15,7 5,9 15,8 4 2 18 10 WSW 1017,4 57 0,0
11.12.2018 14:00:00 14,3 6,9 15,3 5 3 19 10 SW 1017,7 39 0,0
11.12.2018 13:00:00 14,0 7,3 15,6 10 5 22 12 SW 1018,2 27 0,0
11.12.2018 12:00:00 14,7 7,5 17,4 11 6 19 10 SW 1018,5 51 0,0
11.12.2018 11:00:00 15,4 6,7 - 4 2 9 5 WSW 1018,9 18 0,0
11.12.2018 10:00:00 12,3 8,6 9,2 0 0 5 3 N 1018,9 55 0,0
11.12.2018 09:00:00 5,6 5,0 -1,9 4 2 10 5 ENE 1018,7 54 0,2
11.12.2018 08:00:00 0,3 -0,4 -2,7 6 3 11 6 NNE 1018,6 37 0,0
11.12.2018 07:00:00 0,5 -0,2 -2,5 8 5 11 6 NE 1018,2 20 0,0
11.12.2018 06:00:00 -0,2 -1,0 -2,8 6 4 10 5 NNE 1018,0 42 0,0
11.12.2018 05:00:00 0,0 -0,9 -2,6 4 2 6 3 NNE 1018,1 38 0,0
11.12.2018 04:00:00 0,0 -0,9 -2,5 2 1 5 3 NE 1018,2 44 0,0
11.12.2018 03:00:00 0,1 -0,8 -2,3 3 2 6 3 W 1018,6 43 0,0
11.12.2018 02:00:00 0,1 -0,9 -2,2 2 1 8 4 WSW 1018,8 45 0,0
11.12.2018 01:00:00 0,4 -0,6 -2,0 0 0 8 5 N 1018,9 38 0,0
11.12.2018 00:00:00 1,4 0,4 -1,8 3 2 10 6 N 1019,5 20 0,0
10.12.2018 23:00:00 2,0 1,0 -1,1 3 2 17 9 NNE 1019,5 40 0,0
10.12.2018 22:00:00 2,1 1,1 -1,6 5 3 11 6 SSE 1019,6 20 0,0
10.12.2018 21:00:00 2,2 0,7 -1,6 6 3 9 5 ENE 1019,8 47 0,0
10.12.2018 20:00:00 3,3 2,0 -1,1 8 5 10 5 NNE 1019,5 43 0,0
10.12.2018 19:00:00 4,8 2,5 0,2 3 2 10 5 E 1019,3 43 0,0
10.12.2018 18:00:00 7,2 4,0 1,8 4 2 14 8 NE 1018,7 50 0,0
10.12.2018 17:00:00 13,2 5,8 9,0 13 7 27 15 NW 1018,1 51 0,0
10.12.2018 16:00:00 15,6 6,6 14,7 17 9 35 19 WNW 1018,2 20 0,0
10.12.2018 15:00:00 16,2 6,6 18,1 24 13 51 27 NW 1017,8 52 0,0
10.12.2018 14:00:00 16,6 6,1 19,9 26 14 54 29 WNW 1017,6 47 0,0
10.12.2018 13:00:00 16,7 5,6 15,6 29 16 60 33 WNW 1017,7 20 0,0
10.12.2018 12:00:00 14,8 6,4 15,4 14 8 43 23 SSW 1019,0 20 0,0
10.12.2018 11:00:00 16,2 6,9 19,5 24 13 49 26 WSW 1019,2 20 0,0
10.12.2018 10:00:00 15,2 6,7 13,0 18 10 45 25 SW 1018,7 19 0,0
10.12.2018 09:00:00 13,1 6,4 11,7 31 17 62 33 W 1017,9 20 0,0
10.12.2018 08:00:00 13,3 5,7 11,1 6 3 49 27 SSW 1018,1 51 0,0
10.12.2018 07:00:00 13,5 6,1 12,0 35 19 63 34 WNW 1016,8 45 0,0
10.12.2018 06:00:00 13,8 6,2 12,4 29 15 61 33 WNW 1016,8 20 0,0
10.12.2018 05:00:00 13,8 5,4 12,7 36 19 71 38 WNW 1016,2 52 0,0
10.12.2018 04:00:00 14,0 5,1 12,8 43 23 77 42 NW 1015,8 52 0,0
10.12.2018 03:00:00 14,1 4,9 12,9 45 24 89 48 NW 1015,9 56 0,0
10.12.2018 02:00:00 14,2 5,5 13,4 59 32 97 53 NW 1014,8 45 0,0
10.12.2018 01:00:00 14,3 5,1 13,4 59 32 98 53 NW 1014,5 47 0,0
10.12.2018 00:00:00 14,5 4,2 13,6 55 30 84 45 WNW 1015,9 52 0,0
09.12.2018 23:00:00 14,8 4,2 13,5 35 19 81 44 WNW 1017,2 58 0,0
09.12.2018 22:00:00 14,9 5,4 13,8 36 19 74 40 W 1017,6 45 0,0
09.12.2018 21:00:00 15,5 6,0 14,5 34 19 72 39 W 1017,6 50 0,0
09.12.2018 20:00:00 15,6 7,1 14,6 40 21 73 39 W 1017,3 20 0,0
09.12.2018 19:00:00 15,3 8,3 14,5 34 19 72 39 W 1017,5 16 0,0
09.12.2018 18:00:00 15,7 8,4 13,3 38 21 72 39 W 1017,5 17 0,0
09.12.2018 17:00:00 15,5 7,8 14,6 43 23 80 43 W 1016,9 19 0,0
09.12.2018 16:00:00 16,0 8,7 15,6 42 23 78 42 W 1016,5 18 0,0
09.12.2018 15:00:00 16,0 9,0 16,0 44 24 79 43 W 1016,4 13 0,0
09.12.2018 14:00:00 16,3 8,8 16,7 47 26 90 49 W 1015,8 29 0,0
09.12.2018 13:00:00 17,2 8,9 18,8 53 28 89 48 W 1016,1 23 0,0
09.12.2018 12:00:00 17,2 9,1 17,8 54 29 98 53 W 1016,0 19 0,0
09.12.2018 11:00:00 16,5 8,5 17,3 65 35 106 57 WNW 1015,6 19 0,0
09.12.2018 10:00:00 16,5 8,7 15,9 68 37 106 57 WNW 1015,4 28 0,0
09.12.2018 09:00:00 16,0 8,7 14,6 53 28 105 57 WNW 1015,4 15 0,0
09.12.2018 08:00:00 15,5 9,4 14,4 53 29 84 45 WNW 1016,4 53 0,0
09.12.2018 07:00:00 15,0 9,4 14,1 35 19 72 39 W 1018,1 47 0,0

tt = temperature
td = dewpoint
tt 5cm = temperature 5cm
ff = wind speed
fx = gusts
dd = wind direction
ppp = reduced air pressure
vv = visibility
rr = precipitation

Next stations